Simultaneous Nadir Overpasses (SNOs) Predictions

Prediction of SNOs between NOAA-20 and LANDSAT-8 Satellite Orbit:

Table of predicted SNOs for the next 14.0 days since TLE Epoch: 4/20/2024
Index Date (NOAA-20) Time (NOAA-20) Lat,Lon (NOAA-20) SZA (NOAA-20 ) Date (LANDSAT-8) Time (LANDSAT-8) Lat,Lon (LANDSAT-8) SZA (LANDSAT-8 ) Distance(km) Time Diff (sec)
1 04/22/2024 12:48:44 71.18, -17.41 58.69 04/22/2024 12:49:50 71.11, -14.81 58.55 93.89 66
2 04/22/2024 13:39:10 -70.24, 151.45 122.32 04/22/2024 13:39:34 -70.23, 151.51 122.33 2.24 24
3 04/22/2024 14:29:53 70.12, -41.06 57.55 04/22/2024 14:29:00 70.13, -41.00 57.57 2.64 53
4 04/25/2024 05:05:34 70.26, 99.81 56.84 04/25/2024 05:06:33 70.26, 99.78 56.83 0.98 59
5 04/25/2024 05:56:16 -70.15, -92.71 123.29 04/25/2024 05:56:03 -70.15, -92.74 123.29 1.30 13
6 04/25/2024 06:46:49 69.45, 75.64 55.98 04/25/2024 06:45:40 69.49, 73.99 56.06 64.31 69
7 04/27/2024 20:32:14 -71.19, 46.69 123.04 04/27/2024 20:33:20 -71.09, 49.27 123.21 93.23 66
8 04/27/2024 21:22:41 70.19,-144.38 55.91 04/27/2024 21:23:01 70.21,-144.40 55.93 2.78 20
9 04/27/2024 22:13:24 -70.13, 23.03 124.17 04/27/2024 22:12:31 -70.11, 23.08 124.19 3.16 53
10 04/30/2024 12:49:04 -70.24, 163.94 124.86 04/30/2024 12:50:01 -70.27, 163.92 124.84 3.12 57
11 04/30/2024 13:39:48 70.14, -28.59 55.03 04/30/2024 13:39:28 70.16, -28.60 55.05 2.20 20
12 04/30/2024 14:30:18 -69.39, 139.84 125.76 04/30/2024 14:29:09 -69.45, 138.06 125.66 70.08 69
13 05/03/2024 04:15:40 70.90, 111.28 55.04 05/03/2024 04:16:48 70.80, 112.97 54.90 62.50 68
14 05/03/2024 05:06:11 -70.20, -80.29 125.70 05/03/2024 05:06:27 -70.21, -80.28 125.70 0.13 16
15 05/03/2024 05:56:55 70.10, 87.18 54.19 05/03/2024 05:55:54 70.09, 87.19 54.18 1.57 61



Historial Predications of SNOs between NOAA-20 and LANDSAT-8
